owner,sensor,date,latitude,longitude,air_temperature,qcFlag 
WAVCIS,ioos:station:WAVCIS:CSI03:1,2009-03-01T00:00:00Z,29.4412,-92.0613,12.33,11111222 
WAVCIS,ioos:station:WAVCIS:CSI03:1,2009-03-01T01:00:00Z,29.4412,-92.0613,12.07,11111222 
WAVCIS,ioos:station:WAVCIS:CSI03:1,2009-03-01T02:00:00Z,29.4412,-92.0613,11.74,11111222 
WAVCIS,ioos:station:WAVCIS:CSI03:1,2009-03-01T03:00:00Z,29.4412,-92.0613,11.25,11111222 
WAVCIS,ioos:station:WAVCIS:CSI03:1,2009-03-01T04:00:00Z,29.4412,-92.0613,10.38,11111222 
WAVCIS,ioos:station:WAVCIS:CSI03:1,2009-03-01T05:00:00Z,29.4412,-92.0613,9.8,11111222 
WAVCIS,ioos:station:WAVCIS:CSI03:1,2009-03-01T06:00:00Z,29.4412,-92.0613,9.03,11111222 
WAVCIS,ioos:station:WAVCIS:CSI03:1,2009-03-01T07:00:00Z,29.4412,-92.0613,7.71,11111222 
WAVCIS,ioos:station:WAVCIS:CSI03:1,2009-03-01T08:00:00Z,29.4412,-92.0613,5.615,11111222 
WAVCIS,ioos:station:WAVCIS:CSI03:1,2009-03-01T09:00:00Z,29.4412,-92.0613,4.503,11111222 
WAVCIS,ioos:station:WAVCIS:CSI03:1,2009-03-01T10:00:00Z,29.4412,-92.0613,3.644,11111222 
WAVCIS,ioos:station:WAVCIS:CSI03:1,2009-03-01T11:00:00Z,29.4412,-92.0613,2.874,11111222 
WAVCIS,ioos:station:WAVCIS:CSI03:1,2009-03-01T12:00:00Z,29.4412,-92.0613,2.161,11111222 
WAVCIS,ioos:station:WAVCIS:CSI03:1,2009-03-01T13:00:00Z,29.4412,-92.0613,1.691,11111222 
WAVCIS,ioos:station:WAVCIS:CSI03:1,2009-03-01T14:00:00Z,29.4412,-92.0613,1.649,11111222 
WAVCIS,ioos:station:WAVCIS:CSI03:1,2009-03-01T15:00:00Z,29.4412,-92.0613,1.933,11111222 
WAVCIS,ioos:station:WAVCIS:CSI03:1,2009-03-01T16:00:00Z,29.4412,-92.0613,2.748,11111222 
WAVCIS,ioos:station:WAVCIS:CSI03:1,2009-03-01T17:00:00Z,29.4412,-92.0613,3.618,11111222 
WAVCIS,ioos:station:WAVCIS:CSI03:1,2009-03-01T18:00:00Z,29.4412,-92.0613,5.331,11111222 
WAVCIS,ioos:station:WAVCIS:CSI03:1,2009-03-01T19:00:00Z,29.4412,-92.0613,6.891,11111222 
WAVCIS,ioos:station:WAVCIS:CSI03:1,2009-03-01T20:00:00Z,29.4412,-92.0613,8.3,11111222 
WAVCIS,ioos:station:WAVCIS:CSI03:1,2009-03-01T21:00:00Z,29.4412,-92.0613,9.62,11111222 
WAVCIS,ioos:station:WAVCIS:CSI03:1,2009-03-01T22:00:00Z,29.4412,-92.0613,10.84,11111222 
WAVCIS,ioos:station:WAVCIS:CSI03:1,2009-03-01T23:00:00Z,29.4412,-92.0613,11.52,11111222 
WAVCIS,ioos:station:WAVCIS:CSI03:1,2009-03-02T00:00:00Z,29.4412,-92.0613,11.74,11111222 
WAVCIS,ioos:station:WAVCIS:CSI03:1,2009-03-02T01:00:00Z,29.4412,-92.0613,11.46,11111222 
WAVCIS,ioos:station:WAVCIS:CSI03:1,2009-03-02T02:00:00Z,29.4412,-92.0613,11.16,11111222 
WAVCIS,ioos:station:WAVCIS:CSI03:1,2009-03-02T03:00:00Z,29.4412,-92.0613,10.88,11111222 
WAVCIS,ioos:station:WAVCIS:CSI03:1,2009-03-02T04:00:00Z,29.4412,-92.0613,10.33,11111222 
WAVCIS,ioos:station:WAVCIS:CSI03:1,2009-03-02T05:00:00Z,29.4412,-92.0613,9.77,11111222 
WAVCIS,ioos:station:WAVCIS:CSI03:1,2009-03-02T06:00:00Z,29.4412,-92.0613,9.75,11111222 
WAVCIS,ioos:station:WAVCIS:CSI03:1,2009-03-02T07:00:00Z,29.4412,-92.0613,9.14,11111222 
WAVCIS,ioos:station:WAVCIS:CSI03:1,2009-03-02T08:00:00Z,29.4412,-92.0613,8.81,11111222 
WAVCIS,ioos:station:WAVCIS:CSI03:1,2009-03-02T09:00:00Z,29.4412,-92.0613,8.26,11111222 
WAVCIS,ioos:station:WAVCIS:CSI03:1,2009-03-02T10:00:00Z,29.4412,-92.0613,7.84,11111222 
WAVCIS,ioos:station:WAVCIS:CSI03:1,2009-03-02T11:00:00Z,29.4412,-92.0613,7.39,11111222 
WAVCIS,ioos:station:WAVCIS:CSI03:1,2009-03-02T12:00:00Z,29.4412,-92.0613,7.31,11111222 
WAVCIS,ioos:station:WAVCIS:CSI03:1,2009-03-02T13:00:00Z,29.4412,-92.0613,7.2,11111222 
WAVCIS,ioos:station:WAVCIS:CSI03:1,2009-03-02T14:00:00Z,29.4412,-92.0613,6.644,11111222 
WAVCIS,ioos:station:WAVCIS:CSI03:1,2009-03-02T15:00:00Z,29.4412,-92.0613,6.517,11111222 
WAVCIS,ioos:station:WAVCIS:CSI03:1,2009-03-02T16:00:00Z,29.4412,-92.0613,6.938,11111222 
WAVCIS,ioos:station:WAVCIS:CSI03:1,2009-03-02T17:00:00Z,29.4412,-92.0613,7.95,11111222 
WAVCIS,ioos:station:WAVCIS:CSI03:1,2009-03-02T18:00:00Z,29.4412,-92.0613,8.64,11111222 
WAVCIS,ioos:station:WAVCIS:CSI03:1,2009-03-02T19:00:00Z,29.4412,-92.0613,9.54,11111222 
WAVCIS,ioos:station:WAVCIS:CSI03:1,2009-03-02T20:00:00Z,29.4412,-92.0613,10.2,11111222 
WAVCIS,ioos:station:WAVCIS:CSI03:1,2009-03-02T21:00:00Z,29.4412,-92.0613,10.62,11111222 
WAVCIS,ioos:station:WAVCIS:CSI03:1,2009-03-02T22:00:00Z,29.4412,-92.0613,10.73,11111222 
WAVCIS,ioos:station:WAVCIS:CSI03:1,2009-03-02T23:00:00Z,29.4412,-92.0613,10.81,11111222 
WAVCIS,ioos:station:WAVCIS:CSI03:1,2009-03-03T00:00:00Z,29.4412,-92.0613,11.1,11111222 
WAVCIS,ioos:station:WAVCIS:CSI03:1,2009-03-03T01:00:00Z,29.4412,-92.0613,11.74,11111222 
WAVCIS,ioos:station:WAVCIS:CSI03:1,2009-03-03T02:00:00Z,29.4412,-92.0613,11.77,11111222 
WAVCIS,ioos:station:WAVCIS:CSI03:1,2009-03-03T03:00:00Z,29.4412,-92.0613,11.28,11111222 
WAVCIS,ioos:station:WAVCIS:CSI03:1,2009-03-03T04:00:00Z,29.4412,-92.0613,10.42,11111222 
WAVCIS,ioos:station:WAVCIS:CSI03:1,2009-03-03T05:00:00Z,29.4412,-92.0613,10.3,11111222 
WAVCIS,ioos:station:WAVCIS:CSI03:1,2009-03-03T06:00:00Z,29.4412,-92.0613,9.77,11111222 
WAVCIS,ioos:station:WAVCIS:CSI03:1,2009-03-03T07:00:00Z,29.4412,-92.0613,9.37,11111222 
WAVCIS,ioos:station:WAVCIS:CSI03:1,2009-03-03T08:00:00Z,29.4412,-92.0613,8.95,11111222 
WAVCIS,ioos:station:WAVCIS:CSI03:1,2009-03-03T09:00:00Z,29.4412,-92.0613,8.37,11111222 
WAVCIS,ioos:station:WAVCIS:CSI03:1,2009-03-03T10:00:00Z,29.4412,-92.0613,8.05,11111222 
WAVCIS,ioos:station:WAVCIS:CSI03:1,2009-03-03T11:00:00Z,29.4412,-92.0613,7.74,11111222 
WAVCIS,ioos:station:WAVCIS:CSI03:1,2009-03-03T12:00:00Z,29.4412,-92.0613,7.04,11111222 
WAVCIS,ioos:station:WAVCIS:CSI03:1,2009-03-03T13:00:00Z,29.4412,-92.0613,6.809,11111222 
WAVCIS,ioos:station:WAVCIS:CSI03:1,2009-03-03T14:00:00Z,29.4412,-92.0613,6.823,11111222 
WAVCIS,ioos:station:WAVCIS:CSI03:1,2009-03-03T15:00:00Z,29.4412,-92.0613,7.76,11111222 
WAVCIS,ioos:station:WAVCIS:CSI03:1,2009-03-03T16:00:00Z,29.4412,-92.0613,8.24,11111222 
WAVCIS,ioos:station:WAVCIS:CSI03:1,2009-03-03T17:00:00Z,29.4412,-92.0613,8.81,11111222 
WAVCIS,ioos:station:WAVCIS:CSI03:1,2009-03-03T18:00:00Z,29.4412,-92.0613,9.39,11111222 
WAVCIS,ioos:station:WAVCIS:CSI03:1,2009-03-03T19:00:00Z,29.4412,-92.0613,10.05,11111222 
WAVCIS,ioos:station:WAVCIS:CSI03:1,2009-03-03T20:00:00Z,29.4412,-92.0613,10.73,11111222 
WAVCIS,ioos:station:WAVCIS:CSI03:1,2009-03-03T21:00:00Z,29.4412,-92.0613,11.57,11111222 
WAVCIS,ioos:station:WAVCIS:CSI03:1,2009-03-03T22:00:00Z,29.4412,-92.0613,12.06,11111222 
WAVCIS,ioos:station:WAVCIS:CSI03:1,2009-03-03T23:00:00Z,29.4412,-92.0613,12.39,11111222 
WAVCIS,ioos:station:WAVCIS:CSI03:1,2009-03-04T00:00:00Z,29.4412,-92.0613,12.53,11111222 
WAVCIS,ioos:station:WAVCIS:CSI03:1,2009-03-04T01:00:00Z,29.4412,-92.0613,12.51,11111222 
WAVCIS,ioos:station:WAVCIS:CSI03:1,2009-03-04T02:00:00Z,29.4412,-92.0613,12.74,11111222 
WAVCIS,ioos:station:WAVCIS:CSI03:1,2009-03-04T03:00:00Z,29.4412,-92.0613,12.78,11111222 
WAVCIS,ioos:station:WAVCIS:CSI03:1,2009-03-04T04:00:00Z,29.4412,-92.0613,12.91,11111222 
WAVCIS,ioos:station:WAVCIS:CSI03:1,2009-03-04T05:00:00Z,29.4412,-92.0613,12.84,11111222 
WAVCIS,ioos:station:WAVCIS:CSI03:1,2009-03-04T06:00:00Z,29.4412,-92.0613,12.69,11111222 
WAVCIS,ioos:station:WAVCIS:CSI03:1,2009-03-04T07:00:00Z,29.4412,-92.0613,11.83,11111222 
WAVCIS,ioos:station:WAVCIS:CSI03:1,2009-03-04T08:00:00Z,29.4412,-92.0613,11.68,11111222 
WAVCIS,ioos:station:WAVCIS:CSI03:1,2009-03-04T09:00:00Z,29.4412,-92.0613,11.59,11111222 
WAVCIS,ioos:station:WAVCIS:CSI03:1,2009-03-04T10:00:00Z,29.4412,-92.0613,11.64,11111222 
WAVCIS,ioos:station:WAVCIS:CSI03:1,2009-03-04T11:00:00Z,29.4412,-92.0613,11.28,11111222 
WAVCIS,ioos:station:WAVCIS:CSI03:1,2009-03-04T12:00:00Z,29.4412,-92.0613,11.71,11111222 
WAVCIS,ioos:station:WAVCIS:CSI03:1,2009-03-04T13:00:00Z,29.4412,-92.0613,11.6,11111222 
WAVCIS,ioos:station:WAVCIS:CSI03:1,2009-03-04T14:00:00Z,29.4412,-92.0613,12.19,11111222 
WAVCIS,ioos:station:WAVCIS:CSI03:1,2009-03-04T15:00:00Z,29.4412,-92.0613,12.3,11111222 
WAVCIS,ioos:station:WAVCIS:CSI03:1,2009-03-04T16:00:00Z,29.4412,-92.0613,12.89,11111222 
WAVCIS,ioos:station:WAVCIS:CSI03:1,2009-03-04T17:00:00Z,29.4412,-92.0613,13.13,11111222 
WAVCIS,ioos:station:WAVCIS:CSI03:1,2009-03-04T18:00:00Z,29.4412,-92.0613,14.03,11111222 
WAVCIS,ioos:station:WAVCIS:CSI03:1,2009-03-04T19:00:00Z,29.4412,-92.0613,14.72,11111222 
WAVCIS,ioos:station:WAVCIS:CSI03:1,2009-03-04T20:00:00Z,29.4412,-92.0613,15.55,11111222 
WAVCIS,ioos:station:WAVCIS:CSI03:1,2009-03-04T21:00:00Z,29.4412,-92.0613,15.75,11111222 
WAVCIS,ioos:station:WAVCIS:CSI03:1,2009-03-04T22:00:00Z,29.4412,-92.0613,16.11,11111222 
WAVCIS,ioos:station:WAVCIS:CSI03:1,2009-03-04T23:00:00Z,29.4412,-92.0613,16.06,11111222 
WAVCIS,ioos:station:WAVCIS:CSI03:1,2009-03-05T00:00:00Z,29.4412,-92.0613,15.91,11111222 
WAVCIS,ioos:station:WAVCIS:CSI03:1,2009-03-05T01:00:00Z,29.4412,-92.0613,15.87,11111222 
WAVCIS,ioos:station:WAVCIS:CSI03:1,2009-03-05T02:00:00Z,29.4412,-92.0613,15.94,11111222 
WAVCIS,ioos:station:WAVCIS:CSI03:1,2009-03-05T03:00:00Z,29.4412,-92.0613,16.01,11111222 
WAVCIS,ioos:station:WAVCIS:CSI03:1,2009-03-05T04:00:00Z,29.4412,-92.0613,15.9,11111222 
WAVCIS,ioos:station:WAVCIS:CSI03:1,2009-03-05T05:00:00Z,29.4412,-92.0613,16.03,11111222 
WAVCIS,ioos:station:WAVCIS:CSI03:1,2009-03-05T06:00:00Z,29.4412,-92.0613,16.12,11111222 
WAVCIS,ioos:station:WAVCIS:CSI03:1,2009-03-05T07:00:00Z,29.4412,-92.0613,16.05,11111222 
WAVCIS,ioos:station:WAVCIS:CSI03:1,2009-03-05T08:00:00Z,29.4412,-92.0613,16.38,11111222 
WAVCIS,ioos:station:WAVCIS:CSI03:1,2009-03-05T09:00:00Z,29.4412,-92.0613,19.93,11111222 
WAVCIS,ioos:station:WAVCIS:CSI03:1,2009-03-05T10:00:00Z,29.4412,-92.0613,16.28,11111222 
WAVCIS,ioos:station:WAVCIS:CSI03:1,2009-03-05T11:00:00Z,29.4412,-92.0613,15.93,11111222 
WAVCIS,ioos:station:WAVCIS:CSI03:1,2009-03-05T12:00:00Z,29.4412,-92.0613,16.14,11111222 
WAVCIS,ioos:station:WAVCIS:CSI03:1,2009-03-05T13:00:00Z,29.4412,-92.0613,16.09,11111222 
WAVCIS,ioos:station:WAVCIS:CSI03:1,2009-03-05T14:00:00Z,29.4412,-92.0613,16.34,11111222 
WAVCIS,ioos:station:WAVCIS:CSI03:1,2009-03-05T15:00:00Z,29.4412,-92.0613,16.61,11111222 
WAVCIS,ioos:station:WAVCIS:CSI03:1,2009-03-05T16:00:00Z,29.4412,-92.0613,16.78,11111222 
WAVCIS,ioos:station:WAVCIS:CSI03:1,2009-03-05T17:00:00Z,29.4412,-92.0613,16.64,11111222 
WAVCIS,ioos:station:WAVCIS:CSI03:1,2009-03-05T18:00:00Z,29.4412,-92.0613,16.93,11111222 
WAVCIS,ioos:station:WAVCIS:CSI03:1,2009-03-05T19:00:00Z,29.4412,-92.0613,17.02,11111222 
WAVCIS,ioos:station:WAVCIS:CSI03:1,2009-03-05T20:00:00Z,29.4412,-92.0613,17.11,11111222 
WAVCIS,ioos:station:WAVCIS:CSI03:1,2009-03-05T21:00:00Z,29.4412,-92.0613,16.99,11111222 
WAVCIS,ioos:station:WAVCIS:CSI03:1,2009-03-05T22:00:00Z,29.4412,-92.0613,17.05,11111222 
WAVCIS,ioos:station:WAVCIS:CSI03:1,2009-03-05T23:00:00Z,29.4412,-92.0613,17.12,11111222 
WAVCIS,ioos:station:WAVCIS:CSI03:1,2009-03-06T00:00:00Z,29.4412,-92.0613,16.96,11111222 
WAVCIS,ioos:station:WAVCIS:CSI03:1,2009-03-06T01:00:00Z,29.4412,-92.0613,16.78,11111222 
WAVCIS,ioos:station:WAVCIS:CSI03:1,2009-03-06T02:00:00Z,29.4412,-92.0613,16.96,11111222 
WAVCIS,ioos:station:WAVCIS:CSI03:1,2009-03-06T03:00:00Z,29.4412,-92.0613,16.83,11111222 
WAVCIS,ioos:station:WAVCIS:CSI03:1,2009-03-06T04:00:00Z,29.4412,-92.0613,16.74,11111222 
WAVCIS,ioos:station:WAVCIS:CSI03:1,2009-03-06T05:00:00Z,29.4412,-92.0613,16.81,11111222 
WAVCIS,ioos:station:WAVCIS:CSI03:1,2009-03-06T06:00:00Z,29.4412,-92.0613,16.84,11111222 
WAVCIS,ioos:station:WAVCIS:CSI03:1,2009-03-06T07:00:00Z,29.4412,-92.0613,16.81,11111222 
WAVCIS,ioos:station:WAVCIS:CSI03:1,2009-03-06T08:00:00Z,29.4412,-92.0613,17.62,11111222 
WAVCIS,ioos:station:WAVCIS:CSI03:1,2009-03-06T09:00:00Z,29.4412,-92.0613,16.99,11111222 
WAVCIS,ioos:station:WAVCIS:CSI03:1,2009-03-06T10:00:00Z,29.4412,-92.0613,18.25,11111222 
WAVCIS,ioos:station:WAVCIS:CSI03:1,2009-03-06T11:00:00Z,29.4412,-92.0613,17.52,11111222 
WAVCIS,ioos:station:WAVCIS:CSI03:1,2009-03-06T12:00:00Z,29.4412,-92.0613,16.85,11111222 
WAVCIS,ioos:station:WAVCIS:CSI03:1,2009-03-06T13:00:00Z,29.4412,-92.0613,18.02,11111222 
WAVCIS,ioos:station:WAVCIS:CSI03:1,2009-03-06T14:00:00Z,29.4412,-92.0613,20.27,11111222 
WAVCIS,ioos:station:WAVCIS:CSI03:1,2009-03-06T15:00:00Z,29.4412,-92.0613,21.92,11111222 
WAVCIS,ioos:station:WAVCIS:CSI03:1,2009-03-06T16:00:00Z,29.4412,-92.0613,20.99,11111222 
WAVCIS,ioos:station:WAVCIS:CSI03:1,2009-03-06T17:00:00Z,29.4412,-92.0613,20.33,11111222 
WAVCIS,ioos:station:WAVCIS:CSI03:1,2009-03-06T18:00:00Z,29.4412,-92.0613,18.19,11111222 
WAVCIS,ioos:station:WAVCIS:CSI03:1,2009-03-06T19:00:00Z,29.4412,-92.0613,18.13,11111222 
WAVCIS,ioos:station:WAVCIS:CSI03:1,2009-03-06T20:00:00Z,29.4412,-92.0613,18.08,11111222 
WAVCIS,ioos:station:WAVCIS:CSI03:1,2009-03-06T21:00:00Z,29.4412,-92.0613,18.37,11111222 
WAVCIS,ioos:station:WAVCIS:CSI03:1,2009-03-06T22:00:00Z,29.4412,-92.0613,18.44,11111222 
WAVCIS,ioos:station:WAVCIS:CSI03:1,2009-03-06T23:00:00Z,29.4412,-92.0613,18.33,11111222 
WAVCIS,ioos:station:WAVCIS:CSI03:1,2009-03-07T00:00:00Z,29.4412,-92.0613,18.18,11111222 
WAVCIS,ioos:station:WAVCIS:CSI03:1,2009-03-07T01:00:00Z,29.4412,-92.0613,18.19,11111222 
WAVCIS,ioos:station:WAVCIS:CSI03:1,2009-03-07T02:00:00Z,29.4412,-92.0613,17.87,11111222 
WAVCIS,ioos:station:WAVCIS:CSI03:1,2009-03-07T03:00:00Z,29.4412,-92.0613,17.95,11111222 
WAVCIS,ioos:station:WAVCIS:CSI03:1,2009-03-07T04:00:00Z,29.4412,-92.0613,17.76,11111222 
WAVCIS,ioos:station:WAVCIS:CSI03:1,2009-03-07T05:00:00Z,29.4412,-92.0613,17.63,11111222 
WAVCIS,ioos:station:WAVCIS:CSI03:1,2009-03-07T06:00:00Z,29.4412,-92.0613,17.62,11111222 
WAVCIS,ioos:station:WAVCIS:CSI03:1,2009-03-07T07:00:00Z,29.4412,-92.0613,17.63,11111222 
WAVCIS,ioos:station:WAVCIS:CSI03:1,2009-03-07T08:00:00Z,29.4412,-92.0613,17.58,11111222 
WAVCIS,ioos:station:WAVCIS:CSI03:1,2009-03-07T09:00:00Z,29.4412,-92.0613,17.38,11111222 
WAVCIS,ioos:station:WAVCIS:CSI03:1,2009-03-07T10:00:00Z,29.4412,-92.0613,17.28,11111222 
WAVCIS,ioos:station:WAVCIS:CSI03:1,2009-03-07T11:00:00Z,29.4412,-92.0613,17.15,11111222 
WAVCIS,ioos:station:WAVCIS:CSI03:1,2009-03-07T12:00:00Z,29.4412,-92.0613,16.81,11111222 
WAVCIS,ioos:station:WAVCIS:CSI03:1,2009-03-07T13:00:00Z,29.4412,-92.0613,17.12,11111222 
WAVCIS,ioos:station:WAVCIS:CSI03:1,2009-03-07T14:00:00Z,29.4412,-92.0613,17.51,11111222 
WAVCIS,ioos:station:WAVCIS:CSI03:1,2009-03-07T15:00:00Z,29.4412,-92.0613,17.61,11111222 
WAVCIS,ioos:station:WAVCIS:CSI03:1,2009-03-07T16:00:00Z,29.4412,-92.0613,17.87,11111222 
WAVCIS,ioos:station:WAVCIS:CSI03:1,2009-03-07T17:00:00Z,29.4412,-92.0613,18.02,11111222 
WAVCIS,ioos:station:WAVCIS:CSI03:1,2009-03-07T18:00:00Z,29.4412,-92.0613,18.41,11111222 
WAVCIS,ioos:station:WAVCIS:CSI03:1,2009-03-07T19:00:00Z,29.4412,-92.0613,18.37,11111222 
WAVCIS,ioos:station:WAVCIS:CSI03:1,2009-03-07T20:00:00Z,29.4412,-92.0613,18.23,11111222 
WAVCIS,ioos:station:WAVCIS:CSI03:1,2009-03-07T21:00:00Z,29.4412,-92.0613,18.47,11111222 
WAVCIS,ioos:station:WAVCIS:CSI03:1,2009-03-07T22:00:00Z,29.4412,-92.0613,18.63,11111222 
WAVCIS,ioos:station:WAVCIS:CSI03:1,2009-03-07T23:00:00Z,29.4412,-92.0613,18.59,11111222 
WAVCIS,ioos:station:WAVCIS:CSI03:1,2009-03-08T00:00:00Z,29.4412,-92.0613,18.57,11111222 
WAVCIS,ioos:station:WAVCIS:CSI03:1,2009-03-08T01:00:00Z,29.4412,-92.0613,18.48,11111222 
WAVCIS,ioos:station:WAVCIS:CSI03:1,2009-03-08T02:00:00Z,29.4412,-92.0613,18.36,11111222 
WAVCIS,ioos:station:WAVCIS:CSI03:1,2009-03-08T03:00:00Z,29.4412,-92.0613,18.47,11111222 
WAVCIS,ioos:station:WAVCIS:CSI03:1,2009-03-08T04:00:00Z,29.4412,-92.0613,18.34,11111222 
WAVCIS,ioos:station:WAVCIS:CSI03:1,2009-03-08T05:00:00Z,29.4412,-92.0613,18.28,11111222 
WAVCIS,ioos:station:WAVCIS:CSI03:1,2009-03-08T06:00:00Z,29.4412,-92.0613,18.48,11111222 
WAVCIS,ioos:station:WAVCIS:CSI03:1,2009-03-08T07:00:00Z,29.4412,-92.0613,18.51,11111222 
WAVCIS,ioos:station:WAVCIS:CSI03:1,2009-03-08T08:00:00Z,29.4412,-92.0613,18.37,11111222 
WAVCIS,ioos:station:WAVCIS:CSI03:1,2009-03-08T09:00:00Z,29.4412,-92.0613,18.34,11111222 
WAVCIS,ioos:station:WAVCIS:CSI03:1,2009-03-08T10:00:00Z,29.4412,-92.0613,18.38,11111222 
WAVCIS,ioos:station:WAVCIS:CSI03:1,2009-03-08T11:00:00Z,29.4412,-92.0613,19.33,11111222 
WAVCIS,ioos:station:WAVCIS:CSI03:1,2009-03-08T12:00:00Z,29.4412,-92.0613,18.66,11111222 
WAVCIS,ioos:station:WAVCIS:CSI03:1,2009-03-08T13:00:00Z,29.4412,-92.0613,18.69,11111222 
WAVCIS,ioos:station:WAVCIS:CSI03:1,2009-03-08T14:00:00Z,29.4412,-92.0613,20.07,11111222 
WAVCIS,ioos:station:WAVCIS:CSI03:1,2009-03-08T15:00:00Z,29.4412,-92.0613,18.63,11111222 
WAVCIS,ioos:station:WAVCIS:CSI03:1,2009-03-08T16:00:00Z,29.4412,-92.0613,19.1,11111222 
WAVCIS,ioos:station:WAVCIS:CSI03:1,2009-03-08T17:00:00Z,29.4412,-92.0613,19.4,11111222 
WAVCIS,ioos:station:WAVCIS:CSI03:1,2009-03-08T18:00:00Z,29.4412,-92.0613,19.59,11111222 
WAVCIS,ioos:station:WAVCIS:CSI03:1,2009-03-08T19:00:00Z,29.4412,-92.0613,20.02,11111222 
WAVCIS,ioos:station:WAVCIS:CSI03:1,2009-03-08T20:00:00Z,29.4412,-92.0613,20.8,11111222 
WAVCIS,ioos:station:WAVCIS:CSI03:1,2009-03-08T21:00:00Z,29.4412,-92.0613,20.66,11111222 
WAVCIS,ioos:station:WAVCIS:CSI03:1,2009-03-08T22:00:00Z,29.4412,-92.0613,20.69,11111222 
WAVCIS,ioos:station:WAVCIS:CSI03:1,2009-03-08T23:00:00Z,29.4412,-92.0613,20.44,11111222 
WAVCIS,ioos:station:WAVCIS:CSI03:1,2009-03-09T00:00:00Z,29.4412,-92.0613,20.04,11111222 
WAVCIS,ioos:station:WAVCIS:CSI03:1,2009-03-09T01:00:00Z,29.4412,-92.0613,19.8,11111222 
WAVCIS,ioos:station:WAVCIS:CSI03:1,2009-03-09T02:00:00Z,29.4412,-92.0613,19.24,11111222 
WAVCIS,ioos:station:WAVCIS:CSI03:1,2009-03-09T03:00:00Z,29.4412,-92.0613,19.42,11111222 
WAVCIS,ioos:station:WAVCIS:CSI03:1,2009-03-09T04:00:00Z,29.4412,-92.0613,19.43,11111222 
WAVCIS,ioos:station:WAVCIS:CSI03:1,2009-03-09T05:00:00Z,29.4412,-92.0613,19.41,11111222 
WAVCIS,ioos:station:WAVCIS:CSI03:1,2009-03-09T06:00:00Z,29.4412,-92.0613,19.39,11111222 
WAVCIS,ioos:station:WAVCIS:CSI03:1,2009-03-09T07:00:00Z,29.4412,-92.0613,20.74,11111222 
WAVCIS,ioos:station:WAVCIS:CSI03:1,2009-03-09T08:00:00Z,29.4412,-92.0613,19.34,11111222 
WAVCIS,ioos:station:WAVCIS:CSI03:1,2009-03-09T09:00:00Z,29.4412,-92.0613,21.24,11111222 
WAVCIS,ioos:station:WAVCIS:CSI03:1,2009-03-09T10:00:00Z,29.4412,-92.0613,19.26,11111222 
WAVCIS,ioos:station:WAVCIS:CSI03:1,2009-03-09T11:00:00Z,29.4412,-92.0613,20.09,11111222 
WAVCIS,ioos:station:WAVCIS:CSI03:1,2009-03-09T12:00:00Z,29.4412,-92.0613,20.55,11111222 
WAVCIS,ioos:station:WAVCIS:CSI03:1,2009-03-09T13:00:00Z,29.4412,-92.0613,21.18,11111222 
WAVCIS,ioos:station:WAVCIS:CSI03:1,2009-03-09T14:00:00Z,29.4412,-92.0613,19.47,11111222 
WAVCIS,ioos:station:WAVCIS:CSI03:1,2009-03-09T15:00:00Z,29.4412,-92.0613,19.62,11111222 
WAVCIS,ioos:station:WAVCIS:CSI03:1,2009-03-09T16:00:00Z,29.4412,-92.0613,20.1,11111222 
WAVCIS,ioos:station:WAVCIS:CSI03:1,2009-03-09T17:00:00Z,29.4412,-92.0613,19.4,11111222 
WAVCIS,ioos:station:WAVCIS:CSI03:1,2009-03-09T18:00:00Z,29.4412,-92.0613,19.7,11111222 
WAVCIS,ioos:station:WAVCIS:CSI03:1,2009-03-09T20:00:00Z,29.4412,-92.0613,20.57,11111222 
WAVCIS,ioos:station:WAVCIS:CSI03:1,2009-03-09T21:00:00Z,29.4412,-92.0613,20.61,11111222 
WAVCIS,ioos:station:WAVCIS:CSI03:1,2009-03-09T22:00:00Z,29.4412,-92.0613,20.52,11111222 
WAVCIS,ioos:station:WAVCIS:CSI03:1,2009-03-09T23:00:00Z,29.4412,-92.0613,20.54,11111222 
WAVCIS,ioos:station:WAVCIS:CSI03:1,2009-03-10T00:00:00Z,29.4412,-92.0613,20.29,11111222 
WAVCIS,ioos:station:WAVCIS:CSI03:1,2009-03-10T01:00:00Z,29.4412,-92.0613,20.06,11111222 
WAVCIS,ioos:station:WAVCIS:CSI03:1,2009-03-10T02:00:00Z,29.4412,-92.0613,20.01,11111222 
WAVCIS,ioos:station:WAVCIS:CSI03:1,2009-03-10T03:00:00Z,29.4412,-92.0613,19.81,11111222 
WAVCIS,ioos:station:WAVCIS:CSI03:1,2009-03-10T04:00:00Z,29.4412,-92.0613,19.64,11111222 
WAVCIS,ioos:station:WAVCIS:CSI03:1,2009-03-10T05:00:00Z,29.4412,-92.0613,19.64,11111222 
WAVCIS,ioos:station:WAVCIS:CSI03:1,2009-03-10T06:00:00Z,29.4412,-92.0613,19.58,11111222 
WAVCIS,ioos:station:WAVCIS:CSI03:1,2009-03-10T07:00:00Z,29.4412,-92.0613,20.06,11111222 
WAVCIS,ioos:station:WAVCIS:CSI03:1,2009-03-10T08:00:00Z,29.4412,-92.0613,19.62,11111222 
WAVCIS,ioos:station:WAVCIS:CSI03:1,2009-03-10T09:00:00Z,29.4412,-92.0613,19.43,11111222 
WAVCIS,ioos:station:WAVCIS:CSI03:1,2009-03-10T10:00:00Z,29.4412,-92.0613,19.44,11111222 
WAVCIS,ioos:station:WAVCIS:CSI03:1,2009-03-10T11:00:00Z,29.4412,-92.0613,19.14,11111222 
WAVCIS,ioos:station:WAVCIS:CSI03:1,2009-03-10T12:00:00Z,29.4412,-92.0613,18.67,11111222 
WAVCIS,ioos:station:WAVCIS:CSI03:1,2009-03-10T13:00:00Z,29.4412,-92.0613,18.65,11111222 
WAVCIS,ioos:station:WAVCIS:CSI03:1,2009-03-10T14:00:00Z,29.4412,-92.0613,18.6,11111222 
WAVCIS,ioos:station:WAVCIS:CSI03:1,2009-03-10T15:00:00Z,29.4412,-92.0613,19.08,11111222 
WAVCIS,ioos:station:WAVCIS:CSI03:1,2009-03-10T16:00:00Z,29.4412,-92.0613,19.19,11111222 
WAVCIS,ioos:station:WAVCIS:CSI03:1,2009-03-10T17:00:00Z,29.4412,-92.0613,19.38,11111222 
WAVCIS,ioos:station:WAVCIS:CSI03:1,2009-03-10T18:00:00Z,29.4412,-92.0613,19.67,11111222 
WAVCIS,ioos:station:WAVCIS:CSI03:1,2009-03-10T19:00:00Z,29.4412,-92.0613,19.96,11111222 
WAVCIS,ioos:station:WAVCIS:CSI03:1,2009-03-10T20:00:00Z,29.4412,-92.0613,20.28,11111222 
WAVCIS,ioos:station:WAVCIS:CSI03:1,2009-03-10T21:00:00Z,29.4412,-92.0613,20.46,11111222 
WAVCIS,ioos:station:WAVCIS:CSI03:1,2009-03-10T22:00:00Z,29.4412,-92.0613,20.5,11111222 
WAVCIS,ioos:station:WAVCIS:CSI03:1,2009-03-10T23:00:00Z,29.4412,-92.0613,20.64,11111222 
WAVCIS,ioos:station:WAVCIS:CSI03:1,2009-03-11T00:00:00Z,29.4412,-92.0613,20.45,11111222 
WAVCIS,ioos:station:WAVCIS:CSI03:1,2009-03-11T01:00:00Z,29.4412,-92.0613,19.92,11111222 
WAVCIS,ioos:station:WAVCIS:CSI03:1,2009-03-11T02:00:00Z,29.4412,-92.0613,19.86,11111222 
WAVCIS,ioos:station:WAVCIS:CSI03:1,2009-03-11T03:00:00Z,29.4412,-92.0613,19.88,11111222 
WAVCIS,ioos:station:WAVCIS:CSI03:1,2009-03-11T04:00:00Z,29.4412,-92.0613,19.93,11111222 
WAVCIS,ioos:station:WAVCIS:CSI03:1,2009-03-11T05:00:00Z,29.4412,-92.0613,19.71,11111222 
WAVCIS,ioos:station:WAVCIS:CSI03:1,2009-03-11T06:00:00Z,29.4412,-92.0613,19.7,11111222 
WAVCIS,ioos:station:WAVCIS:CSI03:1,2009-03-11T07:00:00Z,29.4412,-92.0613,19.76,11111222 
WAVCIS,ioos:station:WAVCIS:CSI03:1,2009-03-11T08:00:00Z,29.4412,-92.0613,19.73,11111222 
WAVCIS,ioos:station:WAVCIS:CSI03:1,2009-03-11T09:00:00Z,29.4412,-92.0613,19.61,11111222 
WAVCIS,ioos:station:WAVCIS:CSI03:1,2009-03-11T10:00:00Z,29.4412,-92.0613,19.64,11111222 
WAVCIS,ioos:station:WAVCIS:CSI03:1,2009-03-11T11:00:00Z,29.4412,-92.0613,19.51,11111222 
WAVCIS,ioos:station:WAVCIS:CSI03:1,2009-03-11T12:00:00Z,29.4412,-92.0613,19.62,11111222 
WAVCIS,ioos:station:WAVCIS:CSI03:1,2009-03-11T13:00:00Z,29.4412,-92.0613,19.65,11111222 
WAVCIS,ioos:station:WAVCIS:CSI03:1,2009-03-11T14:00:00Z,29.4412,-92.0613,19.61,11111222 
WAVCIS,ioos:station:WAVCIS:CSI03:1,2009-03-11T15:00:00Z,29.4412,-92.0613,20.02,11111222 
WAVCIS,ioos:station:WAVCIS:CSI03:1,2009-03-11T16:00:00Z,29.4412,-92.0613,20.28,11111222 
WAVCIS,ioos:station:WAVCIS:CSI03:1,2009-03-11T17:00:00Z,29.4412,-92.0613,20.93,11111222 
WAVCIS,ioos:station:WAVCIS:CSI03:1,2009-03-11T18:00:00Z,29.4412,-92.0613,20.82,11111222 
WAVCIS,ioos:station:WAVCIS:CSI03:1,2009-03-11T19:00:00Z,29.4412,-92.0613,21.09,11111222 
WAVCIS,ioos:station:WAVCIS:CSI03:1,2009-03-11T20:00:00Z,29.4412,-92.0613,20.9,11111222 
WAVCIS,ioos:station:WAVCIS:CSI03:1,2009-03-11T21:00:00Z,29.4412,-92.0613,21.25,11111222 
WAVCIS,ioos:station:WAVCIS:CSI03:1,2009-03-11T22:00:00Z,29.4412,-92.0613,21.01,11111222 
WAVCIS,ioos:station:WAVCIS:CSI03:1,2009-03-11T23:00:00Z,29.4412,-92.0613,21.42,11111222 
WAVCIS,ioos:station:WAVCIS:CSI03:1,2009-03-12T00:00:00Z,29.4412,-92.0613,21.9,11111222 
WAVCIS,ioos:station:WAVCIS:CSI03:1,2009-03-12T01:00:00Z,29.4412,-92.0613,20.45,11111222 
WAVCIS,ioos:station:WAVCIS:CSI03:1,2009-03-12T02:00:00Z,29.4412,-92.0613,20.54,11111222 
WAVCIS,ioos:station:WAVCIS:CSI03:1,2009-03-12T03:00:00Z,29.4412,-92.0613,20.38,11111222 
WAVCIS,ioos:station:WAVCIS:CSI03:1,2009-03-12T04:00:00Z,29.4412,-92.0613,20.11,11111222 
WAVCIS,ioos:station:WAVCIS:CSI03:1,2009-03-12T05:00:00Z,29.4412,-92.0613,20.12,11111222 